Weather observations for the past three days for
Galena, Edward G. Pitka Sr. Airport
Imperial (Metric)
Date Time (akdt) Wind (mph) Vis. (mi.) Weather Sky Cond. Temperature (ºF) Relative Humidity Wind Chill (°F) Heat Index (°F) Pressure Precipitation (in)
Air Dwpt 6 hour altimeter (in) sea level (mb) 1 hr 3 hr 6 hr
Max. Min.
15 02:56 SE 8 10.00 Mostly Cloudy BKN080 48.9 41 74% 46 29.62 1003.2
15 01:56 SE 6 10.00 Fair CLR 48.9 39.9 71% 47 29.61 1002.7
15 00:56 S 6 10.00 Fair CLR 52 39.9 64% 29.58 1001.8
14 23:56 S 5 10.00 Mostly Cloudy BKN060 53.1 39.9 61% 29.57 1001.4
14 22:56 S 6 10.00 Mostly Cloudy BKN055 54 39.9 59% 29.55 1000.9
14 21:56 S 7 10.00 A Few Clouds FEW055 55.9 37.9 57.9 55 51% 29.53 1000.2
14 20:56 W 7 10.00 Overcast OVC060 57 41 55% 29.52 999.9
14 19:56 SE 5 10.00 Overcast BKN050 OVC060 57 41 55% 29.52 999.6
14 18:56 SE 5 10.00 Overcast BKN044 OVC055 57 41 55% 29.52 999.6
14 17:56 S 6 10.00 Overcast OVC049 57 39.9 53% 29.52 999.6
14 16:56 SE 8 10.00 Mostly Cloudy BKN110 55.9 39.9 55% 29.51 999.6
14 15:56 S 9 10.00 A Few Clouds FEW043 55.9 39 57 53.1 53% 29.51 999.5
14 14:56 S 10 G 16 10.00 Overcast OVC039 54 39.9 59% 29.51 999.3
14 13:56 S 9 G 17 10.00 Mostly Cloudy BKN037 55 41 59% 29.5 998.9
14 12:56 SE 16 G 21 10.00 A Few Clouds FEW035 55 39.9 57% 29.48 998.4
14 11:56 SW 12 10.00 Mostly Cloudy SCT030 BKN037 54 42.1 64% 29.47 998.1
14 10:56 S 12 10.00 Overcast OVC036 54 43 67% 29.46 997.6
14 09:56 S 7 10.00 Overcast BKN026 BKN035 OVC047 53.1 46 55 51.1 77% 29.43 996.9
14 08:56 S 8 10.00 Mostly Cloudy FEW075 BKN090 54 48 80% 29.41 996.1
14 07:56 S 10 10.00 Overcast FEW024 OVC049 52 48.9 89% 29.41 995.9
14 06:56 SE 7 10.00 Overcast FEW032 OVC040 51.1 48 89% 29.39 995.3
14 05:56 SE 6 10.00 Fair CLR 51.1 48 89% 29.38 995.0
14 04:56 SE 7 10.00 Overcast OVC003 51.1 50 96% 29.38 994.9
14 03:56 SE 8 10.00 Mostly Cloudy SCT095 BKN120 52 51.1 53.1 51.1 97% 29.37 994.7 0.01 0.23
14 02:56 E 3 10.00 Light Rain FEW016 SCT025 OVC070 51.1 50 96% 29.38 994.9
14 01:56 NE 3 10.00 Overcast SCT015 OVC080 51.1 50 96% 29.38 995.0 0.01
14 00:56 Calm 10.00 Light Rain SCT011 OVC085 52 50 93% 29.39 995.3 0.05 0.21
13 23:56 Calm 2.50 Heavy Rain Fog/Mist BKN007 OVC025 52 51.1 97% 29.4 995.7 0.09
13 22:56 Vrbl 3 8.00 Rain BKN033 BKN040 OVC050 53.1 52 96% 29.42 996.3 0.07
13 21:56 N 3 10.00 Rain BKN030 BKN037 OVC060 53.1 52 59 53.1 96% 29.44 997.0 0.07 0.11
13 20:56 NE 3 8.00 Rain FEW041 OVC060 54 52 93% 29.46 997.6 0.03
13 19:56 NE 5 10.00 Light Rain OVC065 55 51.1 87% 29.47 998.0 0.01
13 18:56 E 8 10.00 Light Rain OVC060 55.9 50 81% 29.49 998.7
13 17:56 E 12 10.00 Overcast FEW020 BKN046 OVC100 57.9 52 81% 29.5 999.1
13 16:56 E 9 10.00 Light Rain FEW022 BKN037 OVC080 55.9 52 87% 29.52 999.9
13 15:56 E 5 10.00 Light Rain BKN055 57.9 51.1 59 55 78% 29.54 1000.4
13 14:56 E 9 10.00 Light Rain FEW028 SCT034 BKN045 57 51.1 81% 29.56 1001.0
13 13:56 SE 6 10.00 Overcast FEW028 OVC046 57.9 48 70% 29.57 1001.4
13 12:56 SE 5 10.00 Overcast FEW022 BKN065 OVC080 59 48.9 69% 29.58 1001.6
13 11:56 Vrbl 5 10.00 Overcast FEW024 BKN055 OVC070 55.9 48.9 77% 29.59 1002.2
13 10:56 S 9 10.00 Mostly Cloudy FEW046 BKN055 55.9 48 75% 29.59 1002.2
13 09:56 SE 13 10.00 Overcast FEW019 OVC034 55 48 55 53.1 77% 29.6 1002.3
13 08:56 SE 8 10.00 Mostly Cloudy FEW020 BKN032 BKN070 55 48 77% 29.6 1002.3
13 07:56 SE 13 10.00 Overcast OVC070 54 48 80% 29.59 1002.1
13 06:56 SE 13 10.00 Mostly Cloudy SCT048 BKN070 53.1 48 83% 29.59 1002.1
13 05:56 SE 15 10.00 Overcast BKN055 OVC085 53.1 46.9 80% 29.58 1001.9
13 04:56 SE 8 10.00 Overcast FEW050 OVC090 53.1 48 83% 29.58 1001.8
13 03:56 SE 12 10.00 Overcast FEW055 OVC090 53.1 48 55 53.1 83% 29.57 1001.4 0.02
13 02:56 SE 12 10.00 Overcast OVC095 53.1 48.9 86% 29.57 1001.4
13 01:56 SE 12 10.00 Overcast OVC100 53.1 50 89% 29.56 1001.2
13 00:56 E 14 10.00 Overcast OVC100 53.1 50 89% 29.56 1001.2 0.01 0.02
12 23:56 SE 8 10.00 Overcast BKN070 OVC100 53.1 50 89% 29.58 1001.8
12 22:56 E 12 10.00 Light Rain OVC070 53.1 50 89% 29.58 1001.7 0.01
12 21:56 E 14 10.00 Light Rain OVC070 55 50 64.9 55 83% 29.58 1001.9 0.09
12 20:56 SE 10 10.00 Light Rain OVC070 55.9 48.9 77% 29.59 1002.1 0.01
12 19:56 SE 16 G 23 10.00 Light Rain FEW060 OVC070 57.9 50 75% 29.6 1002.3
12 18:56 SE 7 10.00 Light Rain SCT044 BKN055 OVC070 61 52 72% 29.59 1002.1 0.08
12 17:56 E 9 10.00 Overcast OVC065 59 53.1 81% 29.59 1002.2
12 16:56 S 7 G 20 5.00 Light Rain FEW019 BKN049 OVC060 59 52 78% 29.61 1002.8 0.08
12 15:56 E 9 10.00 Fair CLR 64.9 51.1 64.9 60.1 61% 29.62 1003.1
12 14:56 E 10 10.00 Partly Cloudy SCT075 63 51.1 65% 29.65 1004.2
12 13:56 E 8 10.00 Mostly Cloudy BKN080 62.1 52 70% 29.68 1005.0
12 12:56 E 9 10.00 Overcast OVC085 61 52 72% 29.7 1005.8
12 11:56 E 10 10.00 Overcast BKN080 OVC100 61 53.1 75% 29.72 1006.4
12 10:56 E 12 10.00 Overcast SCT070 OVC095 61 51.1 70% 29.74 1007.2
12 09:56 E 7 10.00 Overcast BKN075 OVC090 59 51.1 59 53.1 75% 29.76 1008.0
12 08:56 E 8 10.00 Partly Cloudy SCT090 59 52 78% 29.78 1008.7
12 07:56 E 9 10.00 Mostly Cloudy BKN120 57.9 53.1 84% 29.8 1009.4
12 06:56 E 7 10.00 Overcast BKN070 OVC120 54 52 93% 29.82 1009.9
12 05:56 E 5 10.00 Overcast SCT075 BKN090 OVC110 54 52 93% 29.83 1010.2
12 04:56 SE 9 10.00 Overcast FEW100 OVC120 55 52 90% 29.84 1010.7
12 03:56 Calm 10.00 Fair CLR 53.1 50 61 53.1 89% 29.85 1010.9
Date Time (akdt) Wind (mph) Vis. (mi.) Weather Sky Cond. Air Dwpt Max. Min. Relative Humidity Wind Chill (°F) Heat Index (°F) altimeter (in) sea level (mb) 1 hr 3 hr 6 hr
6 hour
Temperature (ºF) Pressure Precipitation (in)